GFSSGP_prec_cloud_213.txt.gz
Cloud_Cover
98 100 100 99 94 96 75 13 5 2 3 5 3 0 2 42 2 11 29 99 100 100 20 0 0 0 0 0 0 0 0 0 0 0 13 0 0 0 2 6 0 0 0 15 0 0 5 0 0
100 100 100 100 99 80 97 84 60 16 5 4 0 2 0 6 4 94 77 100 100 97 100 5 0 0 0 2 0 0 0 0 0 0 7 13 0 0 4 5 3 0 0 0 10 85 4 0 0
99 100 100 100 100 100 93 79 32 24 22 5 5 2 0 0 0 43 81 82 100 79 61 94 0 0 0 0 5 1 0 0 0 0 4 3 0 0 0 43 5 2 0 0 21 28 6 4 0
100 100 100 100 100 100 100 100 55 9 29 12 5 5 1 0 0 16 83 100 70 100 99 78 0 0 0 0 1 5 1 0 0 0 0 0 0 2 0 5 5 15 5 0 0 0 3 5 0
64 38 96 100 100 100 97 77 43 54 20 28 44 36 66 21 6 5 4 100 100 100 100 100 6 1 0 1 2 5 35 8 2 2 0 0 0 1 0 0 4 4 5 31 57 17 96 0 0
25 15 23 80 100 100 100 77 32 23 5 10 17 5 5 35 36 38 17 16 77 67 51 74 42 93 98 100 100 98 16 100 82 5 0 0 0 0 0 0 0 0 3 14 80 100 95 9 0
0 2 5 45 100 100 100 83 77 44 55 74 23 5 5 5 5 3 0 3 5 4 5 5 5 6 40 8 98 100 100 63 100 100 86 2 0 1 5 0 0 0 0 4 5 84 82 100 98
0 0 4 100 100 100 100 68 100 82 67 60 5 5 5 5 2 4 1 0 3 1 4 38 6 5 5 5 20 100 100 100 100 100 100 98 32 5 4 4 2 4 0 5 4 5 25 14 100
0 0 0 24 100 100 100 100 100 100 100 48 45 29 13 1 1 4 6 7 5 5 4 94 96 88 96 69 87 40 90 100 98 100 99 100 100 100 95 16 5 5 5 3 0 5 5 34 87
0 0 0 0 77 100 100 100 100 100 100 100 100 10 4 16 51 69 61 43 89 5 79 100 100 92 94 71 69 81 98 95 61 30 100 98 100 100 100 100 100 68 21 5 5 5 34 5 64
0 0 5 1 5 100 100 100 98 91 100 100 66 35 60 100 98 97 100 98 73 50 16 57 62 45 38 100 100 98 100 53 32 4 20 100 46 99 82 92 100 100 86 24 19 5 100 100 98
0 0 5 77 2 32 100 100 100 100 100 100 100 92 35 43 97 27 38 56 100 65 94 100 100 74 93 100 100 100 100 100 88 43 34 63 100 96 53 26 56 100 100 100 100 100 100 100 100
0 0 21 33 100 11 100 100 100 100 100 100 100 100 100 100 84 79 100 97 85 100 56 81 98 100 100 100 100 100 100 100 100 100 100 93 24 34 15 8 26 36 78 100 100 100 100 100 100
0 0 5 66 95 95 100 100 100 100 100 100 100 100 100 100 100 100 100 55 45 70 74 100 92 64 100 100 100 99 94 100 100 100 100 100 89 15 5 55 41 5 21 66 100 100 100 100 100
0 0 62 100 100 100 80 100 100 100 100 100 100 100 100 100 100 100 84 77 56 6 5 13 14 88 90 70 98 47 99 98 56 8 24 99 100 100 100 55 73 23 7 1 99 100 100 100 100
0 0 49 100 100 100 100 100 100 100 100 100 100 100 100 100 100 100 98 49 45 7 5 1 4 5 6 93 100 44 37 11 5 8 80 100 87 100 67 32 10 7 99 85 42 53 98 76 100
0 4 97 100 100 100 100 100 100 100 100 100 100 100 100 100 100 100 100 100 85 5 14 5 5 3 5 5 5 24 34 10 5 1 0 1 7 63 55 29 6 20 86 71 56 94 96 89 95
2 1 19 60 100 100 100 100 100 100 100 100 100 100 100 100 100 100 100 100 86 75 33 5 14 7 5 4 5 6 6 1 2 1 4 4 0 0 5 21 8 17 33 25 56 60 24 13 81
4 5 1 84 95 100 100 100 100 100 100 100 100 100 100 100 100 100 100 82 100 100 14 5 6 26 98 100 98 37 5 5 5 5 4 0 0 0 0 5 26 33 45 7 98 40 52 99 78
100 3 5 38 93 49 100 100 85 98 100 100 100 100 100 100 100 100 100 100 100 65 82 79 100 100 68 7 5 5 4 4 0 0 0 0 0 0 0 0 27 99 72 34 31 52 46 100 100
28 4 4 4 90 86 62 98 71 60 100 100 100 100 100 100 100 100 100 100 100 100 95 53 42 6 0 1 2 0 0 0 0 0 0 0 0 0 0 0 15 100 100 100 70 54 34 100 100
94 12 5 4 5 100 55 40 56 100 94 100 100 100 100 100 100 98 100 100 100 78 23 5 5 5 3 0 0 0 0 0 0 0 0 0 0 0 0 0 2 82 95 100 100 21 24 57 100
37 100 6 8 2 3 41 6 100 66 100 100 100 100 100 100 88 34 72 99 72 26 39 5 5 5 0 0 0 0 0 0 0 0 0 2 86 71 0 0 0 10 73 100 100 77 57 24 64
62 51 100 77 4 0 5 62 8 100 100 100 100 100 100 100 95 69 42 81 32 5 5 5 10 0 0 0 0 0 0 0 0 0 0 22 100 59 0 0 0 0 7 59 65 98 60 90 65
10 100 99 55 23 5 5 58 5 68 100 73 100 100 100 100 100 100 100 100 100 38 5 5 1 0 0 0 0 0 0 0 0 6 16 12 5 5 5 6 1 0 0 1 18 52 81 68 96
5 92 100 62 98 5 0 0 4 65 100 100 100 100 100 100 100 100 100 100 79 6 5 1 0 0 0 0 0 0 4 6 5 7 5 5 5 5 5 5 5 5 0 0 2 25 55 50 20
5 73 100 100 7 5 0 0 10 99 100 100 100 100 100 100 100 100 100 84 5 3 0 0 0 0 0 0 0 0 2 1 0 0 0 0 1 5 8 6 5 8 5 5 3 32 63 100 100
5 17 100 100 100 4 2 1 5 100 100 100 100 100 100 100 100 100 87 5 0 0 0 0 0 0 2 3 5 6 75 63 43 78 71 97 76 95 45 3 81 42 5 5 5 13 59 100 100
5 93 100 100 100 5 3 5 5 100 100 100 100 100 100 100 100 100 5 0 3 3 0 3 0 4 5 5 5 99 100 100 100 100 100 96 66 71 88 93 67 21 6 5 12 48 100 64 100
18 100 100 100 89 52 5 5 59 32 100 100 100 100 100 100 100 98 5 5 5 5 5 5 6 24 7 5 19 91 100 100 100 75 96 100 100 100 99 69 93 100 100 88 99 100 100 100 100

GFSSGP_prec_cloud_219.txt.gz
Cloud_Cover
5 6 46 5 79 89 66 60 97 51 5 5 5 38 100 80 8 3 95 33 100 100 0 1 0 0 0 0 2 0 2 0 0 0 0 0 0 0 0 2 0 0 4 5 3 0 13 0 1
5 6 5 51 58 33 17 19 5 12 32 21 21 81 97 100 98 46 100 88 100 100 20 0 0 0 0 0 0 0 0 2 4 8 1 0 2 14 15 0 0 0 0 1 1 1 0 0 5
0 4 2 7 28 23 54 7 20 45 5 5 42 51 93 95 67 89 72 58 74 79 52 0 0 0 0 0 0 0 0 3 5 4 2 0 0 0 16 0 0 0 0 5 36 5 0 0 0
0 0 0 0 15 100 100 83 96 51 18 5 56 62 75 66 100 100 100 96 21 25 28 5 1 0 0 0 5 5 2 0 1 5 5 0 0 0 0 0 0 0 0 0 2 95 100 64 5
0 0 0 0 0 2 22 92 100 18 17 14 30 97 48 58 93 98 59 81 80 62 95 85 8 8 9 1 0 0 0 1 0 3 5 2 4 2 0 0 0 3 4 0 0 0 40 39 71
0 0 0 0 0 0 0 2 6 90 96 79 5 33 94 44 51 34 100 25 66 74 77 89 98 13 62 5 5 4 4 5 5 4 4 2 5 14 5 4 0 0 0 0 0 0 1 70 87
0 0 0 0 0 0 0 0 0 62 100 100 100 96 85 85 62 49 67 95 58 94 70 88 88 67 35 14 14 5 46 79 96 100 5 5 5 18 5 1 5 5 0 0 0 1 0 55 88
0 0 0 0 0 0 0 0 0 6 63 100 100 100 100 100 99 30 44 92 100 100 54 28 8 12 47 81 87 94 5 96 87 61 83 4 5 84 94 76 51 5 5 2 0 5 5 40 12
0 0 0 0 0 0 0 3 30 93 100 100 100 100 100 100 100 36 35 66 64 37 18 22 5 5 5 5 5 1 1 0 4 35 99 91 14 34 99 100 100 84 28 96 45 5 25 30 5
0 0 0 0 0 0 0 3 54 100 100 100 100 100 100 100 100 100 100 68 52 56 20 5 5 5 4 3 0 0 2 0 0 13 98 97 98 100 100 100 100 100 99 7 52 5 90 100 14
0 0 0 0 0 0 0 0 5 100 100 100 100 100 100 100 100 100 100 94 73 55 11 5 5 5 0 0 5 5 5 2 0 0 0 5 32 100 100 100 100 100 100 100 98 96 100 100 97
0 0 1 0 0 0 0 0 5 100 100 100 100 100 100 100 100 100 100 100 100 100 100 39 5 4 5 5 6 42 76 5 5 5 2 5 82 100 100 100 100 100 100 100 100 89 99 98 100
0 0 4 0 0 0 0 0 5 95 100 100 100 100 100 100 100 100 100 100 100 100 100 54 20 48 76 45 6 5 5 5 5 5 46 32 81 58 98 100 100 100 100 100 100 95 100 100 100
0 0 0 4 0 0 0 1 5 87 79 96 100 100 100 100 100 100 100 100 100 100 99 70 78 97 44 14 21 34 30 6 83 12 9 83 89 100 100 100 100 100 100 100 97 100 81 100 100
5 2 0 4 0 0 0 4 5 54 99 99 72 100 100 100 100 100 100 100 100 100 100 100 100 100 99 100 100 100 100 99 100 100 94 96 36 35 34 99 100 63 100 70 100 95 100 95 96
5 5 5 3 0 3 1 0 5 10 92 68 100 100 100 100 100 100 100 100 100 100 100 100 100 100 97 67 94 88 90 99 100 100 100 100 100 100 100 100 99 93 99 100 98 34 52 64 86
5 19 14 4 0 0 7 8 0 5 64 100 76 99 100 100 100 100 100 100 100 100 100 100 100 100 100 84 63 54 83 27 5 2 1 2 22 100 100 52 23 88 95 100 100 100 100 100 52
46 7 14 66 3 0 6 68 60 5 6 99 100 59 100 100 100 100 100 100 100 100 100 100 100 100 100 97 88 84 87 13 5 2 5 5 5 5 28 8 33 8 42 96 100 100 100 98 100
8 60 54 82 52 12 5 72 100 4 5 79 100 100 100 100 99 100 100 100 100 100 100 100 100 100 100 100 100 65 84 43 5 5 5 3 4 1 0 0 4 5 40 100 100 100 100 99 100
8 8 47 80 100 36 15 12 26 10 3 5 90 100 100 100 94 97 100 100 99 100 100 100 100 100 100 100 100 100 71 43 31 56 7 5 5 21 71 51 11 5 6 3 63 100 100 100 84
5 5 25 97 54 88 73 14 5 64 24 5 5 81 100 100 100 100 100 100 94 100 100 99 96 100 100 100 100 100 85 69 20 12 5 5 6 5 2 0 0 1 2 3 4 28 98 100 100
19 57 59 71 100 89 32 98 5 41 100 10 61 76 100 100 100 100 100 75 46 85 69 10 76 86 100 100 100 90 88 86 75 46 5 2 1 1 0 0 0 0 0 0 0 30 98 100 100
49 90 63 6 89 99 12 30 97 4 5 79 14 97 82 100 100 100 100 100 100 62 55 58 68 100 100 100 99 82 37 90 65 5 5 5 3 0 0 0 0 0 16 1 0 0 43 98 100
98 21 88 62 75 100 23 66 97 5 5 19 97 20 40 100 100 100 100 100 89 100 100 100 87 100 100 63 97 73 79 57 66 25 33 7 4 0 0 0 0 0 0 0 1 0 1 36 32
39 64 73 65 98 100 93 96 100 97 66 100 100 86 5 27 100 100 100 100 76 56 99 84 78 99 77 100 37 74 91 84 90 59 65 40 13 4 0 0 6 4 0 0 12 12 12 92 100
92 48 25 100 100 100 100 99 100 71 100 100 100 100 56 47 100 100 100 100 97 53 5 15 69 98 100 100 29 13 50 52 82 65 98 93 62 34 26 38 51 44 29 56 58 100 37 46 100
94 94 20 14 91 92 100 100 100 97 100 100 100 100 93 81 74 100 100 100 100 67 5 5 5 5 5 7 5 5 8 100 82 34 87 99 98 30 91 98 100 100 84 57 55 68 97 68 65
90 100 7 22 20 22 69 99 100 100 94 100 100 100 100 34 100 94 98 100 99 50 42 5 5 5 5 5 5 11 5 84 64 60 84 77 28 13 21 29 74 98 100 100 92 67 24 37 74
90 95 28 5 5 5 70 98 67 83 80 100 100 100 93 67 100 100 100 100 100 90 41 5 8 5 5 5 5 5 26 98 100 100 87 14 5 8 15 40 66 94 100 88 89 99 68 48 41
78 78 9 22 30 12 42 98 100 18 90 100 100 100 8 56 93 100 100 63 53 54 47 5 5 34 57 5 5 5 45 100 100 63 15 10 5 16 100 100 100 100 100 100 100 98 100 99 99

GFSSGP_prec_cloud_222.txt.gz
Cloud_Cover
0 4 11 5 5 28 9 21 28 56 59 18 5 5 5 5 7 20 78 75 31 36 45 0 0 0 1 8 0 0 0 0 0 2 4 6 0 0 7 10 0 4 3 0 0 0 1 2 10
0 0 0 0 4 5 20 25 39 73 39 83 53 6 5 13 5 44 96 100 93 54 48 15 0 0 0 2 0 0 3 1 0 0 0 0 2 3 1 2 0 0 4 9 0 0 0 9 0
0 0 0 0 2 5 5 21 73 52 7 6 30 32 25 5 33 67 99 100 100 94 53 35 0 0 0 0 0 0 0 0 5 1 0 0 6 12 8 0 0 0 0 1 0 0 1 2 0
0 0 0 0 0 0 0 2 5 5 7 5 5 5 6 21 90 100 100 100 94 40 6 48 1 0 0 1 4 8 5 57 76 79 19 5 3 0 0 0 0 0 0 0 0 0 61 5 28
0 0 0 0 0 0 0 0 0 1 43 5 18 23 4 21 85 100 100 99 64 49 57 88 13 5 5 5 5 1 5 18 49 24 13 5 4 6 0 1 0 0 0 0 0 0 0 2 100
0 0 0 0 0 0 0 0 0 0 0 24 20 7 68 36 88 75 66 86 99 56 96 88 65 18 5 65 10 9 11 29 5 9 5 5 5 5 5 5 5 4 2 3 1 5 5 0 29
0 0 0 0 0 0 0 0 0 0 0 0 11 93 79 41 43 33 90 18 36 74 54 100 73 69 42 100 97 17 12 74 96 89 66 60 10 3 5 4 5 5 19 59 5 5 97 16 99
0 0 0 0 0 0 0 0 0 0 0 3 22 7 100 100 97 42 97 44 18 99 89 93 100 100 100 100 100 97 71 100 100 100 65 88 14 5 5 5 7 6 6 5 13 5 5 74 60
0 0 0 0 0 0 0 0 0 4 40 88 100 100 97 100 100 100 100 97 92 39 79 72 100 98 100 100 95 97 100 100 100 100 100 100 18 49 5 95 100 82 94 100 29 40 100 100 77
0 0 0 0 0 0 0 0 0 12 100 100 100 100 100 100 100 100 100 100 100 96 75 53 84 100 100 100 99 50 22 5 73 30 44 90 94 2 91 36 89 61 100 100 92 56 100 100 100
0 0 0 0 0 0 0 0 0 8 100 100 100 95 100 100 100 100 100 100 100 99 100 92 73 49 98 100 100 58 7 23 5 5 0 0 0 1 5 11 84 100 100 100 100 98 28 68 100
0 0 0 0 0 0 0 0 0 3 78 63 94 46 100 100 100 100 100 100 100 100 100 100 94 80 92 87 89 26 9 5 5 5 4 0 0 0 0 0 22 100 100 100 100 89 99 99 100
0 0 0 0 0 0 0 0 0 1 8 37 5 44 100 100 100 100 100 100 100 100 100 100 100 100 88 61 24 5 5 5 5 5 5 0 0 0 2 2 57 100 100 100 100 100 100 100 100
5 0 0 0 0 0 0 0 0 0 5 11 7 19 82 100 100 100 100 100 100 100 100 100 100 100 100 98 56 9 5 5 24 5 5 0 0 0 5 56 100 97 100 100 100 100 100 100 100
5 5 2 3 3 0 1 0 0 0 0 3 61 40 26 100 100 100 100 100 100 100 100 100 100 100 100 90 57 5 5 65 26 15 50 37 5 5 17 11 13 61 100 100 100 100 100 100 100
8 5 5 5 3 25 1 1 1 1 3 0 5 100 16 92 100 100 100 100 100 100 100 100 100 100 100 100 90 95 100 50 75 25 38 38 86 100 100 86 92 99 88 86 100 100 100 100 100
5 5 6 6 5 5 4 4 0 3 2 33 0 57 75 43 91 100 100 100 100 100 100 100 100 100 100 100 100 97 99 100 100 90 100 100 100 100 100 100 92 100 100 88 87 93 100 100 100
87 79 11 18 16 5 5 5 2 5 5 5 6 0 92 79 94 100 100 100 100 100 100 100 100 100 100 100 100 100 100 100 68 36 5 20 5 5 1 0 0 16 100 98 100 100 98 71 66
20 92 76 11 30 5 1 5 51 1 3 4 5 13 2 100 92 100 100 100 100 100 100 100 100 100 100 100 100 100 100 100 75 8 65 68 39 5 5 0 0 0 0 3 39 100 100 100 100
22 17 40 75 100 61 7 4 5 5 1 0 5 8 4 6 100 96 100 98 96 100 100 100 100 100 100 100 100 100 100 100 100 65 61 55 44 44 5 5 2 0 0 5 5 36 94 88 100
30 7 5 84 89 84 20 5 0 4 6 5 5 5 7 5 5 97 100 68 63 100 100 100 100 100 100 100 100 100 100 98 85 100 100 100 94 69 10 8 4 3 5 5 11 6 47 40 17
94 29 57 56 88 97 15 76 5 4 12 10 5 5 7 51 8 5 79 100 61 94 100 99 100 100 100 100 100 100 100 100 100 96 90 91 100 82 39 8 5 13 7 0 29 73 68 92 35
100 100 24 56 99 100 16 67 10 2 5 12 5 5 5 6 100 73 90 91 98 100 100 96 34 81 85 98 99 100 100 100 100 100 100 62 77 69 6 8 2 0 0 13 11 22 66 55 94
64 100 52 64 86 100 94 27 75 5 5 5 5 5 5 5 97 100 43 100 100 82 100 39 6 12 98 98 100 100 100 100 100 100 23 19 28 28 24 13 11 14 5 5 20 63 44 24 21
98 100 39 52 90 100 100 56 5 26 7 87 30 5 7 61 96 100 95 82 100 100 92 100 57 31 95 100 67 74 97 100 100 100 81 92 32 44 62 56 64 69 70 45 20 32 100 84 57
100 100 100 11 15 100 100 100 20 42 8 49 100 100 100 75 86 100 100 54 94 100 100 100 98 99 98 76 99 100 100 100 100 91 98 64 48 27 56 95 99 100 100 100 100 100 80 48 69
100 95 100 100 53 100 100 100 7 43 59 64 92 100 100 100 100 88 100 97 100 100 55 88 100 92 99 98 96 91 100 100 100 100 100 100 78 32 18 34 23 31 50 91 100 100 100 99 85
99 97 100 100 100 100 97 100 83 21 70 67 43 78 94 100 100 100 100 19 90 79 100 99 46 77 99 95 100 92 39 59 100 100 72 42 29 5 5 7 13 26 56 100 100 100 100 100 97
98 100 100 100 97 66 73 99 100 82 71 90 44 80 80 100 100 94 100 7 36 80 6 8 96 100 96 99 66 45 36 53 78 100 48 30 6 11 16 33 45 65 76 100 100 98 84 98 100
100 100 100 100 94 87 100 68 100 68 84 79 5 12 88 100 66 100 100 20 98 99 100 91 83 100 100 100 99 99 99 56 68 94 51 30 28 30 51 63 94 89 88 100 100 100 100 98 80

GFSSGP_prec_cloud_225.txt.gz
Cloud_Cover
0 0 0 0 0 2 17 74 5 44 95 48 5 5 5 42 12 17 97 100 100 100 76 5 2 4 8 0 0 0 0 1 1 0 0 4 8 11 8 15 1 9 3 0 5 0 0 4 7
0 0 0 0 0 0 0 5 2 2 6 36 43 5 5 12 35 19 91 60 100 99 91 6 5 1 5 8 0 0 0 0 0 0 0 0 3 1 4 7 1 0 15 0 0 2 8 2 0
0 0 0 0 0 0 0 0 0 1 0 5 24 5 23 95 92 82 29 73 13 87 100 73 14 5 2 4 2 7 9 2 0 0 0 0 8 11 4 0 0 0 0 0 0 0 4 0 0
0 0 0 0 0 0 0 0 0 0 0 5 5 5 5 55 63 42 42 12 25 35 28 100 100 87 5 0 0 0 5 5 20 38 24 2 3 0 2 3 0 0 0 0 0 0 0 0 4
0 0 0 0 0 0 0 0 0 0 0 0 3 15 5 5 10 100 84 7 50 58 97 97 100 100 100 40 4 0 2 6 8 6 86 100 100 100 46 5 5 3 1 1 1 2 2 0 2
0 0 0 0 0 0 0 0 0 0 0 0 0 3 5 5 15 58 98 88 71 54 49 77 95 100 100 100 100 99 47 52 55 47 79 33 17 5 5 4 5 5 28 24 5 6 5 3 2
0 0 0 0 0 0 0 0 0 0 0 0 0 0 0 5 11 42 23 47 83 42 41 100 38 9 100 100 100 100 99 99 91 38 93 83 5 5 3 2 0 3 5 5 5 5 13 6 5
0 0 0 0 0 0 0 0 0 0 0 0 0 0 0 0 27 54 68 38 44 41 58 98 73 56 100 100 100 100 100 100 100 100 100 98 22 41 5 5 5 5 5 5 1 0 2 24 49
0 0 0 0 0 0 0 0 0 0 0 0 23 26 1 90 54 100 100 97 77 35 95 55 99 100 100 100 100 100 100 100 100 100 100 100 100 90 95 95 96 6 5 5 5 15 5 5 5
1 3 0 0 0 0 0 0 0 0 0 3 61 51 93 100 100 100 100 100 100 86 72 99 99 100 100 100 100 100 72 100 100 100 100 100 100 100 99 76 87 13 5 23 5 59 97 65 87
0 5 0 0 0 0 0 0 0 0 0 2 89 51 98 99 100 100 100 100 100 100 100 100 98 100 100 100 100 100 100 100 100 100 100 100 100 100 100 97 90 66 50 74 8 10 93 95 95
0 16 5 5 0 0 0 0 0 0 0 0 12 30 9 100 100 100 100 100 100 100 100 100 100 100 100 100 100 100 100 100 100 100 100 96 100 93 46 16 5 1 0 0 26 99 100 98 100
5 5 6 79 3 0 0 0 0 0 0 0 1 2 9 78 92 76 97 100 100 100 100 100 100 100 100 100 100 100 100 100 100 100 100 96 14 11 15 9 4 0 0 0 2 100 100 100 100
4 5 32 48 4 0 0 0 0 0 0 0 0 0 0 5 18 100 56 100 100 100 100 100 100 100 100 100 100 100 100 100 100 100 100 95 24 8 14 5 0 0 1 7 67 97 100 100 100
0 3 5 56 4 0 0 0 0 0 0 0 0 0 0 1 5 100 100 98 100 100 100 100 100 100 100 100 100 100 100 100 100 100 86 26 33 6 5 5 0 0 5 46 94 100 100 100 100
5 5 5 27 10 4 0 1 0 0 0 0 0 0 0 0 4 13 99 100 87 100 100 100 100 100 100 100 100 100 100 100 100 63 52 96 65 12 38 48 5 5 6 5 5 5 96 100 100
5 5 5 5 28 81 26 4 0 0 0 0 0 0 0 0 4 1 38 72 100 100 100 100 100 100 100 100 100 100 100 100 100 67 24 5 8 19 5 5 9 63 70 100 100 74 10 100 100
5 5 5 5 21 100 100 10 1 0 1 0 0 5 4 0 0 5 0 99 91 100 100 100 100 100 100 100 100 100 100 100 96 62 99 100 92 94 98 60 75 82 96 100 100 92 98 47 51
79 5 5 5 48 87 97 59 5 0 0 0 5 0 5 5 0 0 5 2 100 98 98 100 100 100 100 100 100 100 100 100 100 92 36 76 100 100 100 94 96 80 27 16 0 20 49 100 100
100 99 21 5 5 100 100 94 5 4 0 0 3 5 5 3 0 0 0 4 5 76 100 100 76 100 100 100 100 100 100 100 100 100 100 100 100 25 56 80 77 38 5 5 3 26 39 100 91
100 100 83 84 11 100 92 80 14 12 0 0 5 5 38 0 5 5 4 4 2 15 10 83 100 100 100 100 97 98 100 100 100 100 100 100 100 100 100 99 82 53 25 15 18 3 27 95 100
62 48 100 98 5 100 100 100 46 98 4 3 5 5 5 39 41 5 3 5 5 1 99 92 43 83 100 100 94 100 82 81 88 100 100 100 98 88 100 100 99 79 62 53 24 45 98 100 100
5 51 51 33 33 90 100 5 96 100 61 5 6 5 5 5 5 5 3 5 2 5 5 87 100 100 100 100 100 100 100 32 18 34 88 100 100 100 100 100 100 100 100 49 60 100 91 100 100
6 33 67 10 41 41 100 27 98 100 100 100 12 5 69 20 8 5 5 5 5 4 5 15 45 97 100 100 88 99 100 100 100 95 85 96 34 63 99 100 100 100 100 100 87 82 100 38 91
57 40 74 25 100 47 26 60 100 100 100 100 80 31 14 92 84 17 9 5 5 5 5 1 12 97 77 100 100 100 99 100 100 100 90 67 51 43 100 100 100 95 99 97 85 83 100 100 97
68 65 100 99 22 5 6 95 100 100 100 100 100 99 96 100 100 56 39 13 5 5 5 5 5 5 5 7 98 100 100 100 100 100 100 100 100 100 100 100 89 78 32 72 99 98 100 100 100
97 100 100 77 93 5 45 100 100 100 100 100 100 100 100 100 100 100 91 6 5 5 5 13 31 24 5 1 62 100 100 100 100 100 100 100 100 100 86 16 48 37 63 100 100 100 100 100 100
100 84 100 100 79 19 92 100 100 100 100 100 100 100 100 100 100 100 99 88 8 5 5 5 7 67 82 43 33 17 97 100 100 100 100 100 100 100 100 100 98 27 75 100 100 100 100 100 46
80 100 100 100 83 88 81 94 99 100 100 100 100 100 100 100 100 100 99 98 65 85 98 5 5 5 17 62 98 99 100 96 96 100 100 100 100 100 100 76 27 42 97 100 92 100 100 100 88
96 100 100 100 98 80 100 100 100 100 100 100 100 100 100 100 100 100 96 98 80 100 100 21 16 54 98 100 98 100 98 98 98 45 84 87 90 80 42 60 99 100 100 100 100 100 100 100 100

GFSSGP_prec_cloud_228.txt.gz
Cloud_Cover
0 0 0 0 0 0 0 0 5 93 100 100 100 99 74 5 9 38 84 100 100 100 40 34 7 4 5 0 0 0 0 0 0 0 0 4 3 15 4 1 8 9 0 0 0 0 1 24 3
0 0 0 0 0 0 0 0 0 31 82 100 97 85 62 98 80 48 49 98 100 95 90 5 28 48 6 5 0 0 0 0 0 0 2 8 11 12 7 3 1 2 0 0 0 0 4 0 0
0 0 0 0 0 0 0 0 0 0 0 6 95 26 5 52 6 96 56 17 100 97 97 0 5 28 78 5 5 0 0 0 0 0 0 0 0 0 0 0 0 0 0 0 0 0 0 0 0
0 0 0 0 0 0 0 0 0 0 0 0 0 70 30 10 5 9 31 6 5 40 95 6 6 14 83 92 68 5 3 0 0 0 0 0 0 0 0 0 0 0 0 0 0 0 0 0 0
0 0 0 0 0 0 0 0 0 0 0 0 0 50 2 38 11 16 21 20 5 52 88 69 38 12 33 57 100 87 15 5 0 0 5 72 87 100 100 80 20 8 5 2 1 1 0 1 0
0 0 0 0 0 0 0 0 0 0 0 0 0 0 0 0 1 27 94 14 43 65 74 89 41 83 89 56 100 100 100 70 16 24 5 82 56 97 97 100 100 100 5 4 2 5 5 5 5
0 0 0 3 0 0 0 0 0 0 0 0 0 7 0 0 2 2 44 83 62 20 94 93 28 20 31 21 100 100 100 100 100 100 99 94 100 100 100 100 53 5 5 3 0 2 0 1 5
0 0 0 1 3 0 0 0 0 0 0 0 0 0 0 0 0 26 21 34 23 37 61 100 99 97 49 44 91 100 100 100 100 100 100 100 100 71 91 79 40 5 5 0 0 0 0 0 0
0 0 0 0 0 0 0 0 0 0 0 0 0 0 0 0 1 5 97 100 97 51 41 76 95 69 64 82 91 85 100 100 100 100 100 100 93 100 100 100 80 56 11 5 4 3 4 5 3
0 0 0 0 0 0 0 0 0 0 0 0 0 0 3 5 5 50 100 100 100 100 51 88 100 44 35 100 100 91 100 100 100 100 100 100 100 100 100 100 100 100 54 5 52 5 15 5 4
0 0 0 0 0 0 0 0 0 0 0 0 0 0 4 5 2 1 32 100 100 100 100 98 100 100 74 100 100 73 100 100 100 100 100 100 100 100 100 100 100 100 100 97 68 5 6 9 7
0 0 0 0 0 0 0 0 0 0 0 0 0 0 0 0 1 5 6 53 25 100 100 100 100 100 100 100 100 75 100 100 100 100 100 100 100 100 100 100 100 100 100 100 14 5 5 28 35
0 0 0 0 0 0 0 0 0 0 0 0 0 0 0 0 0 62 100 83 72 50 83 100 100 100 100 100 100 100 100 100 100 100 100 100 100 100 100 100 100 100 100 100 99 7 4 0 30
0 0 2 0 2 0 0 0 0 0 0 0 0 0 0 0 0 4 93 98 19 79 100 96 100 100 100 100 100 100 100 100 100 100 100 100 100 100 100 100 100 100 100 100 25 5 2 0 4
0 0 0 5 42 0 0 4 2 0 0 0 0 0 0 0 0 0 0 76 91 5 89 100 100 100 100 100 100 100 100 100 100 100 100 100 100 100 100 100 100 100 100 88 25 5 5 1 45
0 0 0 52 100 95 2 1 2 1 0 0 0 0 0 0 0 0 0 0 95 100 81 97 100 100 100 100 100 100 100 100 100 100 100 100 100 100 100 100 100 100 75 62 11 5 5 5 5
3 2 54 55 100 63 7 5 5 5 0 0 0 0 0 0 0 0 0 0 6 57 100 100 100 100 84 84 100 100 100 100 100 100 100 100 100 100 100 100 100 76 52 6 20 16 5 5 5
5 11 100 3 28 5 5 6 5 24 5 0 0 0 0 0 0 0 0 0 0 0 1 89 100 100 100 100 100 100 100 100 100 100 100 100 100 100 100 100 13 33 65 16 41 7 14 24 5
5 5 5 4 5 5 5 68 5 6 10 1 0 0 0 0 0 0 0 0 0 0 0 5 100 100 100 100 100 100 100 100 100 100 100 100 100 100 100 97 20 5 5 20 32 51 6 12 62
6 5 5 5 5 35 24 100 5 6 45 5 0 2 0 0 5 0 0 5 4 0 0 0 5 14 94 100 100 100 100 100 100 100 100 100 100 100 100 85 96 100 88 100 100 100 100 100 100
18 60 63 5 5 6 8 81 51 25 29 12 5 5 4 5 4 5 5 3 5 1 0 0 0 4 67 26 98 99 100 99 100 100 100 100 100 100 100 100 99 94 100 92 86 70 77 84 88
100 100 99 16 5 55 37 29 100 25 100 76 93 98 15 99 98 22 5 5 5 5 0 0 1 4 0 26 91 100 100 100 100 100 100 100 100 100 95 84 100 100 100 100 94 97 100 100 100
39 5 13 48 46 91 100 5 100 100 88 100 100 100 99 39 100 100 17 15 5 5 5 0 0 3 5 4 5 49 100 100 100 100 100 100 100 100 100 100 100 94 100 100 100 100 100 96 96
100 99 100 100 16 5 23 5 99 91 100 100 100 100 100 30 100 100 100 100 35 5 5 5 0 0 1 5 4 43 99 100 100 100 100 100 100 100 99 98 99 77 100 80 66 99 100 100 100
100 100 100 100 100 18 5 16 82 82 100 100 100 100 100 86 74 100 100 100 100 15 5 5 5 4 1 4 5 4 5 70 99 97 100 100 98 100 100 98 68 76 90 95 100 100 100 87 88
100 100 100 100 53 5 5 33 99 100 100 100 97 100 100 100 95 100 100 100 100 99 42 39 5 5 5 5 5 5 4 1 28 62 93 99 100 100 100 100 100 70 96 100 100 100 100 100 98
100 100 100 100 93 35 5 30 66 100 100 100 100 100 100 100 98 100 100 100 100 100 100 100 79 5 6 5 5 10 69 99 16 5 11 76 100 100 94 24 84 62 34 34 99 100 100 100 100
100 100 82 97 58 95 33 37 27 98 100 100 100 100 100 100 100 100 100 100 100 100 100 100 100 58 58 54 9 5 6 57 41 84 56 57 100 86 25 8 9 5 15 99 100 100 100 100 100
92 30 8 47 88 100 87 100 100 98 77 100 98 100 100 100 100 100 100 100 100 100 100 100 100 84 16 10 64 5 5 5 5 92 14 100 100 6 8 10 21 38 100 100 100 100 100 100 100
48 5 6 8 5 46 100 100 100 100 80 97 100 100 100 100 100 100 100 100 100 100 100 100 100 88 30 5 5 5 5 78 100 100 7 100 99 10 5 73 100 100 100 100 100 100 100 100 100

GFSSGP_prec_cloud_234.txt.gz
Cloud_Cover
0 0 0 0 0 0 0 0 0 0 0 0 2 92 100 100 31 33 88 98 100 100 10 5 0 4 2 14 1 5 0 1 0 0 0 2 1 0 0 6 12 0 0 2 4 0 39 0 0
0 0 0 0 0 0 0 0 0 0 0 0 0 0 0 65 97 100 92 79 100 100 4 5 3 5 4 9 0 5 4 0 0 2 5 9 6 3 6 4 1 0 4 2 0 0 0 0 0
0 0 0 0 0 0 0 0 0 0 0 0 0 0 0 0 41 85 98 98 60 100 24 4 4 5 5 5 4 5 5 5 5 3 11 16 10 10 1 7 0 3 0 0 1 0 0 0 0
0 0 0 0 0 0 0 0 0 0 0 0 0 0 0 0 0 0 27 80 100 94 46 5 5 5 5 5 8 7 5 5 24 6 5 4 4 4 4 5 0 0 0 0 0 0 0 0 0
0 0 0 0 0 0 0 0 0 0 0 0 0 0 0 0 14 14 36 12 92 64 95 96 12 94 67 6 99 97 55 21 6 26 5 5 5 6 3 0 0 0 0 0 0 0 0 0 0
0 0 0 0 0 0 0 0 0 0 0 0 0 0 0 0 37 98 58 24 50 100 100 100 100 84 92 100 88 75 90 28 6 5 5 15 96 67 46 8 0 0 0 0 0 2 4 5 4
0 0 0 0 0 0 0 0 0 0 0 0 0 0 0 0 14 100 9 81 56 39 100 100 100 100 100 100 100 99 95 66 42 7 7 6 27 100 88 10 5 5 0 5 76 49 9 5 4
0 0 0 0 0 0 0 4 0 0 0 0 0 0 0 0 0 60 50 22 100 100 100 100 100 100 100 93 100 100 100 100 100 100 100 100 42 100 100 35 6 5 98 96 88 58 5 6 6
0 0 0 0 0 0 0 0 0 0 0 0 0 0 0 0 0 13 21 19 39 87 16 100 100 100 100 98 99 100 100 100 100 100 100 100 90 87 100 100 47 97 100 91 100 100 100 77 23
0 0 0 0 0 0 0 0 0 0 0 0 0 0 0 0 0 0 0 0 2 73 14 22 100 100 100 100 100 100 100 100 100 100 100 100 100 92 99 100 78 100 100 100 100 100 88 5 5
5 0 32 1 0 0 0 0 0 0 0 0 0 0 0 0 0 0 0 0 0 0 0 0 25 81 100 100 100 100 100 100 100 100 100 100 100 100 100 100 100 100 100 100 100 100 100 20 6
97 85 100 86 5 4 0 0 0 0 0 0 0 0 0 0 0 0 0 0 0 1 28 0 27 66 88 100 100 100 100 100 100 100 100 100 100 100 100 100 100 100 100 100 100 94 97 77 25
100 5 75 100 100 58 1 0 0 2 0 0 0 0 0 0 0 0 0 0 0 4 0 0 0 15 16 29 100 100 100 100 100 100 100 100 100 100 100 100 100 100 100 100 100 100 84 95 15
100 14 96 100 83 27 5 2 5 0 0 0 0 0 0 0 0 0 0 0 0 0 5 4 5 5 13 66 63 95 100 100 100 100 100 100 100 100 100 100 100 100 100 100 100 100 100 98 74
9 97 100 59 15 100 34 5 5 0 0 0 5 5 5 0 0 0 0 0 0 0 0 4 5 47 97 96 100 100 100 100 100 100 100 100 100 100 100 100 100 100 100 100 100 100 97 100 54
1 19 100 42 56 95 34 18 0 0 0 4 48 36 5 5 0 0 0 4 5 1 1 0 0 4 4 99 100 100 100 100 100 100 100 100 100 100 100 100 100 100 100 100 100 100 100 100 100
5 89 98 67 100 100 71 57 6 5 92 83 52 8 25 16 14 5 0 5 5 5 5 5 4 0 5 5 100 96 100 100 100 100 100 100 100 100 100 100 100 100 100 100 100 100 100 100 100
5 90 100 75 33 100 100 100 100 100 100 71 64 100 100 87 54 55 5 5 5 22 75 8 5 5 0 5 72 100 100 100 100 100 100 100 100 100 100 100 100 100 100 100 100 100 100 100 100
100 57 5 98 100 100 100 100 100 100 100 100 100 100 99 77 84 100 84 6 5 5 50 100 93 5 18 0 5 26 95 100 100 100 100 100 100 100 100 100 100 100 100 100 100 100 100 100 100
100 80 89 76 100 100 100 100 72 5 4 4 7 63 76 63 8 47 100 100 100 100 92 42 100 31 8 57 3 4 2 49 79 100 99 100 100 100 100 100 100 100 100 100 100 100 100 100 100
94 39 32 62 22 18 7 55 100 3 2 5 30 5 4 19 100 89 100 100 100 100 100 80 100 100 63 33 92 6 5 1 7 68 100 100 100 100 100 99 100 100 100 100 100 100 100 100 100
100 100 100 100 100 100 18 28 100 47 5 5 2 5 4 5 81 100 100 100 100 100 100 100 100 100 99 87 78 57 5 23 11 3 27 100 100 100 100 100 100 93 91 100 100 100 100 100 100
100 100 100 100 100 100 100 100 100 62 0 2 2 0 3 5 80 100 100 100 100 100 100 100 100 100 100 100 100 100 48 8 8 58 11 5 59 91 47 11 30 59 98 69 95 97 30 38 86
100 100 100 100 100 100 100 100 100 100 17 0 0 0 2 5 37 100 100 100 100 100 100 100 100 100 100 100 100 100 100 100 87 43 9 5 5 5 5 5 5 5 9 28 26 18 17 14 41
100 100 100 100 100 100 90 100 100 48 4 0 0 0 5 69 33 99 100 100 100 100 100 100 100 100 100 100 100 100 100 100 82 71 42 13 5 5 5 3 0 1 6 5 5 8 5 99 100
100 66 89 99 93 72 5 61 90 6 8 0 0 0 0 9 100 100 100 100 100 100 100 100 100 100 100 100 100 100 100 100 54 24 43 5 5 5 5 4 5 5 5 5 5 5 5 2 100
100 100 98 100 44 16 5 72 88 97 20 2 5 5 5 5 100 100 100 100 100 100 100 100 100 100 100 100 100 100 100 100 100 17 30 9 5 5 5 5 0 0 4 5 5 0 0 48 100
69 73 26 5 89 100 21 8 6 5 5 5 52 66 100 55 70 100 100 100 100 100 100 100 100 100 100 100 100 100 100 100 100 100 7 6 42 5 5 5 4 5 0 0 2 2 78 100 100
100 100 49 41 86 13 21 24 92 64 7 86 60 99 100 93 97 100 100 100 100 100 100 100 100 100 100 100 100 100 100 100 100 100 97 100 96 72 56 5 5 37 3 0 11 99 100 100 100
97 98 61 71 70 96 100 100 100 100 100 100 5 75 100 100 100 100 94 100 100 100 100 100 100 100 100 100 100 100 100 100 100 98 100 100 100 99 100 100 100 80 2 12 6 20 100 100 100

GFSSGP_prec_cloud_240.txt.gz
Cloud_Cover
0 0 0 0 0 0 0 0 0 0 0 0 0 0 0 0 0 0 14 94 99 91 82 91 9 6 5 0 5 5 1 1 3 5 6 0 4 1 21 0 2 38 92 0 0 0 0 0 0
0 0 0 0 0 0 0 0 0 0 0 0 0 0 0 0 0 0 1 97 0 47 37 7 5 32 64 27 5 1 4 0 0 5 82 69 6 4 9 0 0 6 8 0 0 0 0 0 0
0 0 0 0 0 0 0 0 0 0 0 0 0 0 0 0 0 0 2 96 13 34 0 2 5 5 5 100 17 5 5 5 4 0 62 5 6 6 5 15 5 1 0 0 0 0 0 0 0
0 0 0 0 0 0 0 0 0 0 0 0 0 0 0 0 0 9 26 22 8 100 26 10 0 5 56 100 100 95 26 5 5 5 5 16 9 5 12 6 5 5 0 0 0 0 0 0 0
0 0 0 0 0 0 0 2 0 0 0 0 0 0 0 0 0 23 100 66 21 58 35 100 100 99 86 100 96 100 100 100 30 12 15 8 30 27 10 5 5 3 0 0 0 0 0 0 0
10 0 0 0 0 0 0 12 5 1 0 0 0 0 0 0 1 99 90 58 49 8 100 100 100 100 100 100 100 100 100 100 100 100 35 28 18 78 83 73 28 26 10 2 0 0 0 0 0
5 14 0 0 0 5 5 29 1 5 5 0 0 0 0 0 1 29 16 2 47 28 52 100 100 100 100 100 100 100 100 100 100 100 100 100 31 27 41 21 21 14 5 5 4 0 0 0 2
8 78 5 1 0 5 17 20 0 4 0 0 0 0 0 0 0 66 22 0 50 92 74 100 100 100 100 100 100 100 100 100 100 100 100 100 100 52 55 79 23 85 19 5 5 5 5 5 3
94 29 5 1 0 0 51 98 60 14 0 0 0 0 0 0 2 34 53 0 5 93 31 100 100 100 100 100 100 100 100 100 100 93 100 100 100 100 98 100 100 20 5 24 29 6 6 5 5
54 6 3 0 0 0 89 18 3 0 0 0 0 0 0 0 0 9 4 1 0 34 68 44 100 100 100 100 100 100 100 100 100 100 100 100 100 100 100 100 100 56 78 17 16 46 5 5 50
52 5 12 5 0 0 0 4 5 2 0 0 0 0 0 0 0 0 2 5 0 0 0 1 2 88 100 100 100 98 100 100 100 100 100 100 100 100 100 100 100 100 44 78 78 72 92 92 86
6 5 5 5 0 0 0 0 0 0 0 0 4 0 0 0 0 0 0 0 0 0 0 5 2 0 34 100 100 100 100 74 74 98 99 100 100 100 100 100 100 100 100 100 100 100 100 49 100
7 5 0 0 0 0 0 0 5 95 91 97 5 1 0 0 0 0 0 0 0 0 0 0 0 0 0 13 100 100 100 100 100 100 100 100 100 100 100 100 100 88 85 76 100 100 100 100 100
1 0 0 0 0 2 0 8 20 5 6 6 2 2 4 5 0 0 0 0 0 0 0 0 10 0 0 0 0 73 100 100 100 100 100 100 100 100 100 100 100 100 95 83 100 100 100 100 100
96 2 4 0 0 0 73 18 8 100 100 100 100 100 24 1 0 0 0 0 0 0 0 5 2 0 0 0 0 0 0 4 65 100 100 100 100 100 100 100 100 100 100 84 100 100 100 100 100
29 100 0 0 2 1 2 66 64 22 100 83 2 2 1 0 0 0 0 0 0 0 0 5 23 76 1 0 0 0 0 0 4 9 19 92 100 100 100 100 100 100 100 92 13 91 100 100 100
99 40 28 0 5 15 46 100 100 100 56 4 1 4 1 9 5 1 0 0 0 4 12 76 38 91 100 2 2 2 2 0 5 1 44 99 68 89 100 100 100 100 100 100 100 74 91 100 100
14 90 74 42 49 100 100 100 100 95 42 77 96 74 21 4 2 0 0 0 3 9 7 83 98 13 78 100 7 5 5 5 5 5 5 42 100 100 100 100 100 100 100 100 100 100 98 87 92
54 52 100 100 100 100 100 100 100 100 100 100 100 8 59 68 19 0 3 5 5 5 33 9 49 43 95 100 99 31 30 64 5 18 5 78 100 99 100 100 100 100 100 100 100 100 100 100 100
84 100 100 100 100 100 100 100 100 100 100 87 77 22 5 5 5 0 1 5 5 5 37 99 74 99 100 100 100 99 86 100 80 11 28 5 82 93 82 99 100 99 100 100 100 100 100 100 100
100 100 100 100 100 100 100 100 100 88 46 5 27 100 73 6 4 0 0 4 5 56 7 89 100 90 100 100 100 100 100 100 100 100 56 19 58 81 5 47 100 100 100 100 100 100 100 100 100
99 100 66 24 30 18 81 100 100 96 100 96 70 60 70 27 5 2 3 0 5 100 96 80 95 100 80 100 100 100 100 100 100 100 100 79 95 65 7 5 6 90 99 100 100 100 100 100 100
100 97 15 6 6 6 97 56 100 100 87 58 10 52 87 47 11 9 10 6 89 100 100 79 100 100 100 100 100 100 100 100 100 100 100 100 100 95 100 24 6 5 2 59 67 67 60 97 100
100 100 56 8 77 100 100 98 100 85 6 6 5 42 60 9 42 34 100 100 100 88 100 100 100 100 100 100 100 100 100 100 100 100 100 100 100 100 89 100 94 13 6 5 5 6 32 76 46
100 100 100 100 99 100 100 89 64 29 51 6 9 81 24 26 22 100 100 80 22 40 41 94 100 100 100 100 100 100 100 100 100 100 100 100 100 100 100 98 100 100 91 23 5 4 5 5 5
100 100 100 44 5 5 6 6 89 96 22 5 77 100 100 94 68 100 96 7 5 47 82 93 81 91 100 100 100 100 100 100 100 100 100 100 100 100 100 100 92 84 100 44 57 17 5 3 1
100 100 100 48 5 14 35 58 22 34 83 8 5 99 100 97 100 100 100 39 5 63 100 66 91 85 100 100 100 100 100 100 100 100 100 100 100 100 100 100 100 62 100 85 99 64 6 5 5
100 100 99 19 5 5 5 36 27 48 65 39 6 100 98 100 100 100 94 61 11 100 26 17 49 100 99 100 100 100 100 100 100 100 100 100 100 100 100 100 100 100 100 100 100 100 82 16 2
100 100 100 29 85 44 8 87 33 6 6 5 6 8 80 100 100 100 94 12 5 69 7 17 98 100 100 100 100 100 100 100 100 100 100 100 100 100 100 100 100 100 100 100 100 100 100 35 66
100 100 100 100 34 67 15 49 99 26 5 5 39 80 87 100 100 99 68 38 5 12 71 93 81 100 99 100 100 100 100 95 100 100 100 100 100 100 100 100 100 97 100 100 100 52 100 99 54